Track COSMOS 332 now! 10-day predictions COSMOS 332 is classified as:
1 4369U 70028A 19046.77366402 +.00000029 +00000-0 +14090-4 0 9993 2 4369 074.0355 270.2997 0004814 083.9954 276.1756 14.51467715579353